Simultaneous Nadir Overpasses (SNOs) Predictions

Prediction of SNOs between METOP-A and NOAA-19 Satellite Orbit:

Table of predicted SNOs for the next 14.0 days since TLE Epoch: 11/13/2021
Index Date (METOP-A) Time (METOP-A) Lat,Lon (METOP-A) SZA (METOP-A ) Date (NOAA-19) Time (NOAA-19) Lat,Lon (NOAA-19) SZA (NOAA-19 ) Distance(km) Time Diff (sec)
1 11/16/2021 16:34:12 -79.91, 105.43 81.24 11/16/2021 16:32:59 -79.91, 105.44 81.23 0.59 73
2 11/16/2021 17:24:51 79.96, -86.82 98.82 11/16/2021 17:23:55 79.94, -86.95 98.81 3.14 56
3 11/16/2021 18:15:32 -79.96, 80.51 81.18 11/16/2021 18:14:57 -79.97, 80.62 81.17 2.32 35
4 11/16/2021 19:06:12 79.97,-112.02 98.85 11/16/2021 19:05:54 79.97,-112.08 98.85 1.36 18
5 11/16/2021 19:56:52 -80.00, 55.60 81.11 11/16/2021 19:56:56 -80.00, 55.49 81.12 2.40 4
6 11/16/2021 20:47:32 80.02,-136.92 98.92 11/16/2021 20:47:52 80.02,-136.90 98.92 0.47 20
7 11/16/2021 21:38:12 -80.05, 30.70 81.05 11/16/2021 21:38:54 -80.05, 30.68 81.06 0.66 42



Historial Predications of SNOs between METOP-A and NOAA-19
